STARLINK-1458 (45675 NORAD) Tracking and Keplerian Element Data

This shows tracking and keplerian element data for the satellite.

Feedback or suggestion? Click here.




ElementValue
Catalog45675
NameSTARLINK-1458
Epoch Orbit552
Epoch Day185.50001157
Epoch Year2020
RAAN25.3393
Inclination53.0022
Eccentricity0.0001273
Argument of Perigee92.5198
Mean Anonmoly130.4998
Mean Motion15.46076871
Decay Rate-0.01077204
L11 45675U 20035U 20185.50001157 -.01077204 00000-0 -23933-1 0 9996
L22 45675 53.0022 25.3393 0001273 92.5198 130.4998 15.46076871 5524

Live tracking and technical data element details for STARLINK-1458 (NORAD 45675). STARLINK-1458 can be tracked NOW for your location showing map with azimuth and elevation plus other details from your city location.

Track the satellite on the map from your city or location and see movement details for azimuth, elevation, latitude, longitude, range, height, and movement on the map or in text.







IsCatalogInMostPopularTable: catalog: 45675, numindb: 4
Update: records affected: 1



GetName: 45675 STARLINK-1458

Hit Count: updated at: Sat, 04 Jul 2020 01:40:40 GMT